Tracking 27111 objects as of 28-Mar-2023
HD Live streaming from Space Station
objects crossing your sky now

ARIANE 5 DEB (SYLDA)

Track ARIANE 5 DEB (SYLDA) now!
10-day predictions


NORAD ID: 39081
Int'l Code: 2013-006D
Perigee: 299.7 km
Apogee: 21,620.6 km
Inclination: 6.1 °
Period: 378.4 minutes
Semi major axis: 17331 km
RCS: 0.003 m2 (small)
Launch date: February 7, 2013
Source: France (FR)
Launch site: FRENCH GUIANA (FRGUI)

Note: This is SATELLITE DEBRIS
Your satellite tracking list
Your tracking list is empty




NASA's NSSDC Master Catalog

Two Line Element Set (TLE):
1 39081U 13006D   23085.94151041  .00026230  00000-0  69617-2 0  9998
2 39081   6.0885 193.8013 6151034 322.0252   7.5893  3.80506789115332
Source of the keplerian elements: AFSPC